Starlink 11396

operational
NORAD ID: 62015 Int'l Des: 2024-213 Owner: SPXS Country: US Constellation: starlink
LEOCIRCULAR

关于 Starlink 11396

正在加载描述...

实时位置

正在加载3D地球...

即将过境

高度历史

Altitude vs Time

uPlot chart will show altitude changes over time

两行轨道根数

1 62015U 24213H 25353.94621046 .00098757 00000-0 81013-3 0 9998
2 62015 53.1574 74.1411 0001103 98.6752 261.4391 15.69715919 62390
Epoch: Dec 19, 2025 • Age: 11 hours

当前状态

高度 359.5 km
速度 7.70 km/s
星下点 5.99°N, 6.01°E
发射日期 Nov 18, 2024
运行时间 1 years
类型 internet

技术详情

分类 Payload
质量 960.00 kg
干质量 910.00 kg
总质量 960.00 kg
长度 0.30 m
直径 4.10 m
跨度 29.00 m
形状 Box + pan
制造商 SPXS
平台类型 Starlink V2MD
阶段状态 In Orbit
所有者/国家 SPXS/US

大型星座

Loading constellations...